FW7008 Weather Reports


time (UTC)temp
F
wind
direction
speed
knots
gust
knots
rain 1hr
in
rain 24hr
in
rain mn
in
humidity
%
barometer
mb
20260505140450 59 229 0.0 0.0 0.00 0.00 0.00 88 1014.6
20260505124903 58 240 2.6 5.2 0.00 0.00 0.00 88 1014.2
20260505124400 58 239 0.0 0.0 0.00 0.00 0.00 88 1014.6
20260505123856 58 250 3.5 5.2 0.00 0.00 0.00 88 1014.6
20260505123353 57 258 0.0 0.0 0.00 0.00 0.00 88 1014.2
20260505122849 57 243 2.6 5.2 0.00 0.00 0.00 88 1014.2
20260505122347 57 253 0.0 0.0 0.00 0.00 0.00 88 1014.2
20260505121843 57 222 0.0 0.0 0.00 0.00 0.00 88 1013.9
20260505121340 57 246 0.0 0.0 0.00 0.00 0.00 88 1014.2
20260505120836 58 195 0.0 0.0 0.00 0.00 0.00 87 1014.2
20260505120332 58 283 0.0 0.0 0.00 0.00 0.00 87 1014.2
20260505115831 57 251 0.0 0.0 0.00 0.00 0.00 86 1013.9
20260505115328 58 277 0.0 0.0 0.00 0.00 0.00 86 1014.2
20260505114826 58 271 0.0 0.0 0.00 0.00 0.00 86 1014.2
20260505114322 58 235 0.0 0.0 0.00 0.00 0.00 86 1014.2
20260505113819 58 244 0.0 0.0 0.00 0.00 0.00 85 1014.2
20260505113315 58 236 0.0 0.0 0.00 0.00 0.00 86 1014.2
20260505112811 58 251 0.0 0.0 0.00 0.00 0.00 87 1014.2
20260505112309 58 223 0.0 0.0 0.00 0.00 0.00 87 1014.2
20260505111804 58 215 0.0 0.0 0.00 0.00 0.00 86 1014.2
20260505111300 58 232 0.0 0.0 0.00 0.00 0.00 86 1014.6
20260505110756 59 252 0.0 0.0 0.00 0.00 0.00 85 1014.2
20260505110254 59 259 0.0 0.0 0.00 0.00 0.00 84 1014.2
20260505101728 59 240 0.0 0.0 0.00 0.00 0.00 82 1014.6
20260505101223 59 228 0.0 0.0 0.00 0.00 0.00 83 1014.2
20260505100720 59 224 0.0 0.0 0.00 0.00 0.00 86 1014.2
20260505100217 59 275 0.0 0.0 0.00 0.00 0.00 85 1014.6
20260505095712 59 259 0.0 0.0 0.00 0.00 0.00 84 1014.2
20260505095211 59 210 0.0 0.0 0.00 0.00 0.00 85 1014.6
20260505094706 59 242 0.0 0.0 0.00 0.00 0.00 85 1014.6
20260505094203 59 254 7.0 7.0 0.00 0.00 0.00 86 1014.6
20260505093659 59 250 0.0 0.0 0.00 0.00 0.00 88 1014.6
20260505093157 59 230 0.0 0.0 0.00 0.00 0.00 88 1014.6
20260505092653 59 243 0.0 0.0 0.00 0.00 0.00 89 1014.9
20260505092152 59 193 0.0 0.0 0.00 0.00 0.00 90 1014.9
20260505091649 59 170 0.0 0.0 0.00 0.00 0.00 91 1014.9
20260505091147 59 179 0.0 0.0 0.00 0.00 0.00 91 1014.9
20260505090644 59 184 0.0 0.0 0.00 0.00 0.00 91 1014.9
20260505090142 59 188 0.0 0.0 0.00 0.00 0.00 91 1014.9
20260505085639 59 202 0.0 0.0 0.00 0.00 0.00 91 1014.9
20260505085137 59 206 0.0 0.0 0.00 0.00 0.00 90 1014.9
20260505084635 59 212 0.0 0.0 0.00 0.00 0.00 90 1014.9
20260505084133 59 234 0.0 0.0 0.00 0.00 0.00 89 1014.9
20260505083630 59 204 0.0 0.0 0.00 0.00 0.00 89 1015.2
20260505083127 59 190 0.0 0.0 0.00 0.00 0.00 89 1014.9
20260505082623 59 228 0.0 0.0 0.00 0.00 0.00 89 1014.9
20260505082120 59 249 0.0 0.0 0.00 0.00 0.00 90 1014.9
20260505081616 59 238 0.0 0.0 0.00 0.00 0.00 90 1015.2
20260505081114 59 240 0.0 0.0 0.00 0.00 0.00 90 1015.2
20260505080609 59 224 0.0 0.0 0.00 0.00 0.00 90 1015.2
20260505080106 59 226 0.0 0.0 0.00 0.00 0.00 90 1015.2
20260505075602 59 205 0.0 0.0 0.00 0.00 0.00 91 1015.6
20260505075059 59 241 0.0 0.0 0.00 0.00 0.00 91 1015.2
20260505074556 59 239 0.0 0.0 0.00 0.00 0.00 91 1015.6
20260505074053 59 245 0.0 0.0 0.00 0.00 0.00 91 1015.6
20260505073550 59 243 0.0 0.0 0.00 0.00 0.00 91 1015.6
20260505073049 59 228 0.0 0.0 0.00 0.00 0.00 91 1015.6
20260505072544 59 250 0.0 0.0 0.00 0.00 0.00 91 1015.6
20260505072041 59 231 0.0 0.0 0.00 0.00 0.00 90 1015.6
20260505071536 59 205 0.0 0.0 0.00 0.00 0.00 90 1015.6
20260505071035 59 224 0.0 0.0 0.00 0.00 0.00 90 1015.6
20260505070531 59 215 0.0 0.0 0.00 0.00 0.00 89 1015.6
20260505070027 59 234 0.0 0.0 0.00 0.00 0.00 89 1015.6
20260505065523 59 236 0.0 0.0 0.00 0.00 0.00 89 1015.6
20260505065020 59 259 0.0 0.0 0.00 0.00 0.00 89 1015.6
20260505064517 59 261 0.0 0.0 0.00 0.00 0.00 89 1015.6
20260505064015 59 241 0.0 0.0 0.00 0.00 0.00 89 1015.6
20260505063512 59 275 0.0 0.0 0.00 0.00 0.00 89 1015.6
20260505063008 60 248 0.0 0.0 0.00 0.00 0.00 89 1015.6
20260505062505 60 268 0.0 0.0 0.00 0.00 0.00 89 1015.6
20260505062002 60 213 0.0 0.0 0.00 0.00 0.00 89 1015.6
20260505061500 59 243 0.0 0.0 0.00 0.00 0.00 89 1015.6
20260505060957 59 245 0.0 0.0 0.00 0.00 0.00 89 1015.6
20260505060454 59 224 0.0 0.0 0.00 0.00 0.00 90 1015.6
20260505055950 59 221 0.0 0.0 0.00 0.00 0.00 90 1015.6
20260505055446 59 240 0.0 0.0 0.00 0.00 0.00 90 1015.6
20260505054943 59 266 0.0 0.0 0.00 0.00 0.00 90 1015.6
20260505054441 59 191 0.0 0.0 0.00 0.00 0.00 90 1015.9
20260505053939 59 250 0.0 0.0 0.00 0.00 0.00 90 1015.6
20260505053436 60 244 0.0 0.0 0.00 0.00 0.00 90 1015.6
20260505052932 60 241 0.0 0.0 0.00 0.00 0.00 89 1015.6
20260505052429 60 168 0.0 0.0 0.00 0.00 0.00 89 1015.9
20260505051926 60 244 0.0 0.0 0.00 0.00 0.00 89 1015.6
20260505051423 60 244 0.0 0.0 0.00 0.00 0.00 89 1015.6
20260505050922 60 253 0.0 0.0 0.00 0.00 0.00 89 1015.6
20260505050420 60 230 0.0 0.0 0.00 0.00 0.00 89 1015.9
20260505041347 60 196 0.0 0.0 0.00 0.00 0.00 87 1015.9
20260505040844 60 209 0.0 0.0 0.00 0.00 0.00 87 1015.9
20260505040342 60 184 0.0 0.0 0.00 0.00 0.00 86 1015.9
20260505035838 60 172 0.0 0.0 0.00 0.00 0.00 87 1015.9
20260505035334 60 228 0.0 0.0 0.00 0.00 0.00 86 1015.9
20260505034832 60 172 0.0 0.0 0.00 0.00 0.00 86 1015.9
20260505034328 60 206 0.0 0.0 0.00 0.00 0.00 86 1015.9
20260505033825 60 182 0.0 0.0 0.00 0.00 0.00 86 1015.9
20260505033322 60 189 0.0 0.0 0.00 0.00 0.00 86 1015.9
20260505032820 60 128 0.0 0.0 0.00 0.00 0.00 86 1015.6
20260505032316 60 144 0.0 0.0 0.00 0.00 0.00 85 1015.9
20260505031814 60 134 0.0 0.0 0.00 0.00 0.00 84 1015.6
20260505031310 60 179 0.0 0.0 0.00 0.00 0.00 85 1015.6
20260505030807 60 143 0.0 0.0 0.00 0.00 0.00 85 1015.6
20260505030303 60 150 0.0 0.0 0.00 0.00 0.00 84 1015.6
20260505025759 60 189 0.0 0.0 0.00 0.00 0.00 85 1015.6
20260505025257 60 171 0.0 0.0 0.00 0.00 0.00 85 1015.6
20260505024755 60 134 4.3 7.0 0.00 0.00 0.00 85 1015.6
20260505024252 60 133 5.2 6.1 0.00 0.00 0.00 85 1015.6
20260505023749 60 186 0.0 0.0 0.00 0.00 0.00 84 1015.6
20260505023246 60 181 0.0 0.0 0.00 0.00 0.00 84 1015.6
20260505022743 60 166 0.0 0.0 0.00 0.00 0.00 84 1015.6
20260505022240 60 144 6.1 7.0 0.00 0.00 0.00 84 1015.6
20260505021737 61 204 0.0 0.0 0.00 0.00 0.00 84 1015.6
20260505021234 61 237 0.0 0.0 0.00 0.00 0.00 84 1015.6
20260505020730 61 192 0.0 0.0 0.00 0.00 0.00 84 1015.9
20260505020225 61 228 3.5 5.2 0.00 0.00 0.00 85 1015.6
20260505015723 61 211 6.1 7.8 0.00 0.00 0.00 84 1015.6
20260505015220 61 168 4.3 6.1 0.00 0.00 0.00 84 1015.6
20260505014717 62 238 4.3 8.7 0.00 0.00 0.00 83 1015.6
20260505014214 62 233 3.5 5.2 0.00 0.00 0.00 80 1015.6
20260505013711 62 287 5.2 7.0 0.00 0.00 0.00 80 1015.6
20260505013208 62 265 6.1 7.8 0.00 0.00 0.00 84 1015.6
20260505012706 63 257 4.3 6.1 0.00 0.00 0.00 82 1015.6
20260505012203 63 225 1.7 2.6 0.00 0.00 0.00 81 1015.6
20260505011658 63 262 5.2 7.0 0.00 0.00 0.00 81 1015.9
20260505011156 63 262 3.5 5.2 0.00 0.00 0.00 80 1015.6
20260505010651 63 288 3.5 6.1 0.00 0.00 0.00 77 1015.6
20260505010148 63 203 0.0 0.0 0.00 0.00 0.00 78 1015.6
20260505005644 64 236 5.2 6.1 0.00 0.00 0.00 79 1015.6
20260505005141 63 150 0.9 2.6 0.00 0.00 0.00 75 1015.6
20260505004638 63 197 4.3 5.2 0.00 0.00 0.00 75 1015.6
20260505004135 62 177 0.9 1.7 0.00 0.00 0.00 77 1015.6
20260505003632 62 244 7.8 8.7 0.00 0.00 0.00 78 1015.6
20260505003129 63 217 7.0 8.7 0.00 0.00 0.00 78 1015.9
20260505002625 63 250 6.1 7.8 0.00 0.00 0.00 77 1015.6
20260505002124 63 224 7.8 9.6 0.00 0.00 0.00 78 1015.6
20260505001621 63 242 6.1 7.8 0.00 0.00 0.00 79 1015.9
20260505001118 63 263 4.3 7.0 0.00 0.00 0.00 80 1015.9
20260505000615 63 184 6.1 9.6 0.00 0.00 0.00 80 1015.9
20260505000113 63 248 8.7 12.2 0.00 0.00 0.00 79 1015.9
20260504235609 64 230 5.2 7.8 0.00 0.00 0.00 79 1015.9
20260504235106 64 192 6.1 7.8 0.00 0.00 0.00 78 1015.9
20260504234603 64 257 2.6 4.3 0.00 0.00 0.00 77 1015.9
20260504234100 64 192 3.5 5.2 0.00 0.00 0.00 77 1015.6
20260504233555 64 215 7.0 7.8 0.00 0.00 0.00 76 1015.9
20260504233052 65 174 5.2 7.8 0.00 0.00 0.00 74 1015.6
20260504232549 65 227 5.2 8.7 0.00 0.00 0.00 74 1015.6
20260504232047 66 240 6.1 11.3 0.00 0.00 0.00 71 1015.6
20260504231543 65 202 5.2 7.8 0.00 0.00 0.00 73 1015.6
20260504231039 66 250 10.4 13.9 0.00 0.00 0.00 73 1015.6
20260504230536 65 209 6.1 7.8 0.00 0.00 0.00 73 1015.6
20260504230035 66 182 7.0 9.6 0.00 0.00 0.00 73 1015.6
20260504225531 65 247 0.0 0.0 0.00 0.00 0.00 73 1015.6
20260504225029 65 257 7.8 11.3 0.00 0.00 0.00 75 1015.6
20260504224525 66 184 12.2 14.8 0.00 0.00 0.00 74 1015.9
20260504224022 66 244 9.6 13.0 0.00 0.00 0.00 73 1015.9
20260504223519 66 182 5.2 7.0 0.00 0.00 0.00 76 1015.9
20260504223015 66 158 9.6 12.2 0.00 0.00 0.00 75 1015.9
20260504222512 66 237 11.3 13.9 0.00 0.00 0.00 74 1016.2
20260504222009 67 147 7.8 11.3 0.00 0.00 0.00 74 1015.9
20260504221507 66 233 7.8 9.6 0.00 0.00 0.00 74 1016.2
20260504221003 67 197 7.8 11.3 0.00 0.00 0.00 72 1015.9
20260504220500 67 183 7.8 9.6 0.00 0.00 0.00 73 1016.2
20260504215956 67 167 3.5 6.1 0.00 0.00 0.00 71 1016.2
20260504215453 67 215 9.6 12.2 0.00 0.00 0.00 72 1016.2
20260504214950 67 220 7.8 9.6 0.00 0.00 0.00 71 1016.2
20260504214446 67 180 7.0 11.3 0.00 0.00 0.00 72 1016.2
20260504213943 68 252 10.4 13.9 0.00 0.00 0.00 71 1016.6
20260504213439 68 252 5.2 7.8 0.00 0.00 0.00 70 1016.6
20260504212937 68 243 3.5 6.1 0.00 0.00 0.00 71 1016.6
20260504212432 68 212 7.8 8.7 0.00 0.00 0.00 71 1016.6
20260504211930 67 202 7.0 9.6 0.00 0.00 0.00 72 1016.6
20260504211426 67 225 6.1 7.0 0.00 0.00 0.00 72 1016.6
20260504210924 68 170 7.0 8.7 0.00 0.00 0.00 72 1016.6
20260504210421 67 150 8.7 9.6 0.00 0.00 0.00 73 1016.9
20260504205918 66 226 4.3 6.1 0.00 0.00 0.00 73 1016.6
20260504205415 67 161 5.2 7.0 0.00 0.00 0.00 72 1016.6
20260504204913 67 252 7.0 8.7 0.00 0.00 0.00 71 1016.6
20260504204412 68 252 6.1 7.8 0.00 0.00 0.00 74 1016.6
20260504203911 68 235 7.8 8.7 0.00 0.00 0.00 72 1016.6
20260504203408 68 268 1.7 5.2 0.00 0.00 0.00 73 1016.9
20260504202903 68 246 7.8 9.6 0.00 0.00 0.00 73 1016.6
20260504202400 67 264 9.6 11.3 0.00 0.00 0.00 72 1016.6
20260504201856 67 242 7.8 8.7 0.00 0.00 0.00 72 1016.6
20260504201354 67 239 10.4 13.9 0.00 0.00 0.00 73 1016.6
20260504200851 66 242 5.2 7.0 0.00 0.00 0.00 74 1016.6
20260504200348 66 214 5.2 8.7 0.00 0.00 0.00 74 1016.6
20260504195845 67 253 6.1 8.7 0.00 0.00 0.00 72 1016.6
20260504195340 67 250 7.0 12.2 0.00 0.00 0.00 70 1016.6
20260504194837 68 258 6.1 7.8 0.00 0.00 0.00 67 1016.6
20260504194333 67 246 7.8 8.7 0.00 0.00 0.00 67 1016.6
20260504193829 68 241 7.0 7.8 0.00 0.00 0.00 64 1016.9
20260504193327 67 228 7.8 9.6 0.00 0.00 0.00 63 1016.9
20260504192825 68 248 8.7 11.3 0.00 0.00 0.00 67 1016.9
20260504192323 67 231 6.1 7.8 0.00 0.00 0.00 65 1016.9
20260504191821 68 167 7.0 8.7 0.00 0.00 0.00 64 1016.9
20260504191318 68 255 6.1 7.8 0.00 0.00 0.00 62 1016.9
20260504190814 67 191 4.3 5.2 0.00 0.00 0.00 63 1016.9
20260504190310 66 189 1.7 7.0 0.00 0.00 0.00 65 1016.6
20260504185807 66 164 4.3 7.0 0.00 0.00 0.00 69 1016.6
20260504185304 67 176 1.7 5.2 0.00 0.00 0.00 67 1016.9
20260504184800 67 251 7.0 12.2 0.00 0.00 0.00 68 1016.9
20260504184256 66 235 7.8 9.6 0.00 0.00 0.00 69 1017.3
20260504183752 66 202 3.5 5.2 0.00 0.00 0.00 70 1016.9
20260504183249 65 241 7.0 7.8 0.00 0.00 0.00 72 1016.9
20260504182747 65 220 6.1 8.7 0.00 0.00 0.00 70 1016.9
20260504182244 65 192 8.7 12.2 0.00 0.00 0.00 71 1016.9
20260504181741 65 218 6.1 7.8 0.00 0.00 0.00 71 1016.9
20260504181238 65 186 5.2 7.8 0.00 0.00 0.00 70 1016.9
20260504180738 64 231 3.5 8.7 0.00 0.00 0.00 73 1017.3
20260504180236 65 159 1.7 7.0 0.00 0.00 0.00 70 1016.9
20260504175733 65 181 0.0 0.0 0.00 0.00 0.00 73 1017.3
20260504175229 65 243 5.2 7.0 0.00 0.00 0.00 69 1016.9
20260504174728 64 197 5.2 7.8 0.00 0.00 0.00 71 1016.9
20260504174225 65 170 6.1 7.8 0.00 0.00 0.00 71 1016.9
20260504173721 65 205 4.3 6.1 0.00 0.00 0.00 72 1016.9
20260504173219 65 239 0.0 1.7 0.00 0.00 0.00 73 1016.9
20260504172715 65 237 4.3 8.7 0.00 0.00 0.00 70 1016.9
20260504172211 66 258 4.3 6.1 0.00 0.00 0.00 70 1016.9
20260504171708 66 224 0.0 0.0 0.00 0.00 0.00 70 1016.9
20260504171205 65 216 0.0 0.0 0.00 0.00 0.00 70 1016.6
20260504170702 65 241 0.0 0.0 0.00 0.00 0.00 70 1016.6
20260504170200 65 214 1.7 6.1 0.00 0.00 0.00 69 1016.6
20260504160118 62 203 2.6 4.3 0.00 0.00 0.00 77 1016.2
20260504151045 60 204 0.0 0.0 0.00 0.00 0.00 78 1016.2
20260504150542 60 211 0.0 0.0 0.00 0.00 0.00 78 1016.2